Вернуться в каталог

COSMOS 1275 DEB

АктивенPO
NORAD 12671·DEBRIS·🇷🇺 Russia

Запущен Jun 4, 1981 с Plesetsk Cosmodrome

Loading…

Ближайшие Пролёты (ближайшие 24 часа)

TLE

СвежийSource: Space-Track

Эпоха: Sep 14, 2026, 01:27 UTC

1 12671U 81053AB  26257.06086373  .00001380  00000-0  74205-3 0  9992
2 12671  82.9049 118.8515 0021642 359.3857   0.7289 14.12118998292390

Отслеживайте COSMOS 1275 DEB в реальном времени с AllMySat

Download on the App Store